Regional Weather Roundup
Issued by NWS Lake Charles, LA

Home | Current Version | Previous Version | Text Only | Print | Product List | Glossary On
Versions: 1 2 3 4 5 6 7 8 9 10 11 12 13 14 15 16 17 18 19 20 21 22 23 24 25 26 27
000
ASUS44 KLCH 291510
RWRLCH
REGIONAL WEATHER ROUNDUP
NATIONAL WEATHER SERVICE LAKE CHARLES LA
1000 AM CDT SUN MAY 29 2016

Note: "fair" indicates few or no clouds below 12,000 feet with no
significant weather and/or obstructions to visibility.


ACROSS SOUTHEAST TEXAS

CITY           SKY/WX    TMP DP  RH WIND       PRES   REMARKS
BEAUMONT       PTSUNNY   82  74  76 E5        30.11R
BEAUMONT CITY  FAIR      83  73  71 E3        30.13R
ORANGE         CLOUDY    80  74  83 E7        30.13S
JASPER         CLOUDY    78  70  77 NE3       30.15F
$$

ACROSS CENTRAL LOUISIANA

CITY           SKY/WX    TMP DP  RH WIND       PRES   REMARKS
LEESVILLE      MOSUNNY   80  71  72 NE5       30.14S
FULLERTON      NOT AVBL
ALEXANDRIA INT SUNNY     80  72  76 CALM      30.14R
ESLER FIELD    SUNNY     84  73  69 SE3       30.15R
DERIDDER       FAIR      79  73  82 CALM      30.17R
OAKDALE        MOSUNNY   78  75  92 CALM      30.15S
OPELOUSAS      CLOUDY    76  73  87 CALM      30.15S
$$

ACROSS SOUTHWEST AND SOUTH CENTRAL LOUISIANA

CITY           SKY/WX    TMP DP  RH WIND       PRES   REMARKS
SULPHUR        CLOUDY    81  76  83 CALM      30.14S
LAKE CHARLES   PTSUNNY   80  74  81 NE5       30.13R
CHENNAULT INT  MOSUNNY  N/A N/A N/A E6          N/A
CAMERON PHI    MOSUNNY   81  73  78 NE6       30.15S
DEQUINCY       CLOUDY    77  77 100 NE5       30.14R
JENNINGS       PTSUNNY   79  73  83 NW6       30.14S
LAFAYETTE      CLOUDY    80  73  79 NE5       30.14S
NEW IBERIA     CLOUDY    82  72  71 N7        30.15R
ABBEVILLE      FAIR      80  74  84 N6        30.14S
PATTERSON      PTSUNNY   80  72  76 N5        30.14R
SALT POINT       N/A     82  71  69 VRB5      30.12R
$$

SELECTED SITES ACROSS THE REGION

CITY           SKY/WX    TMP DP  RH WIND       PRES   REMARKS
HOUSTON BUSH   CLOUDY    79  74  84 SE7       30.12R
HOUSTON HOBBY  PTSUNNY   83  73  72 E5        30.11R
GALVESTON      MOSUNNY   81  75  82 SE8       30.12R
COLLEGE STAT   CLOUDY    77  73  87 W8G16     30.12R
CONROE         CLOUDY    80  71  74 CALM      30.13R
HUNTSVILLE     CLOUDY    79  73  82 VRB3      30.13R
LUFKIN         PTSUNNY   75  72  90 CALM      30.13R
SHREVEPORT     CLOUDY    83  72  69 VRB6      30.12R
MONROE         MOSUNNY   83  72  69 VRB3      30.16R
NATCHEZ MS     SUNNY     81  72  74 NW6       30.16R
BATON ROUGE    PTSUNNY   80  68  66 CALM      30.14S
N.O. INTL ARPT PTSUNNY   84  73  69 N8        30.12S
SLIDELL        SUNNY     82  71  69 E5        30.12S
$$

MARINE REPORTS

STATION/POSITION TIME  SKY/WX   TEMP    WIND        PRES    VSBY
                                AIR SEA DIR/SP/G
                 (UTC)          (F)     (DEG/KT/KT) (MB)    (MI)
BUOY 30 S HIGH I 1450            80 81   90/  8/ 10 1019.1S
WVE H/P(F/S)=  2/ 7

SEA RIM ST PARK  1500            80     110/  5/  7 1020.3R
PORT ARTHUR      1400               78   80/  5/  7 1019.7R
SABINE PASS N    1400            80 80   80/  3/  5 1021.0R
TEXAS POINT      NOT AVBL
CALCASIEU PASS   1400            80 80  120/  5/  5 1019.2R
LK CHARLES BEACH 1400            79 78              1020.5R
MARSH ISLAND     1400            79                   N/A
FRESH WATER LOCK 1400            79 81   CALM  /  2 1020.8R
AMERADA PASS     1400            78 76   90/  3/  4 1019.8R
$$




USA.gov is the U.S. government's official web portal to all federal, state and local government web resources and services.